This is the latest recevied weather packets stored in our database for station/object WX7FGZ-6. If no packets are shown the sender has not sent any weather packets the latest 1 day(s).
| Time | Temp. | Humidity | Pressure | Rain* | Wind** | Luminosity | Snow |
|---|---|---|---|---|---|---|---|
| 1778048472 | -5.56° C | 88% | 1014.4 hPa | 0 mm | 1.79 m/s, 10° | - | - |
| 1778048172 | -5.56° C | 88% | 1014.4 hPa | 0 mm | 1.34 m/s, 21° | - | - |
| 1778047872 | -5.56° C | 88% | 1014.3 hPa | 0 mm | 1.79 m/s, 355° | - | - |
| 1778047574 | -5.56° C | 88% | 1014.3 hPa | 0 mm | 1.34 m/s, 8° | - | - |
| 1778047272 | -5.56° C | 88% | 1014.2 hPa | 0 mm | 2.24 m/s, 18° | - | - |
| 1778046972 | -5° C | 88% | 1014.2 hPa | 0 mm | 1.34 m/s, 14° | - | - |
| 1778046672 | -5° C | 88% | 1014.1 hPa | 0 mm | 1.79 m/s, 18° | - | - |
| 1778046373 | -5° C | 88% | 1014.1 hPa | 0 mm | 0.89 m/s, 11° | - | - |
| 1778046073 | -5° C | 88% | 1014.2 hPa | 0 mm | 1.34 m/s, 5° | - | - |
| 1778045772 | -5° C | 88% | 1014.3 hPa | 0 mm | 1.34 m/s, 12° | - | - |
| 1778045472 | -5° C | 88% | 1014.2 hPa | 0 mm | 0.45 m/s, 8° | - | - |
| 1778045172 | -5° C | 88% | 1014.2 hPa | 0 mm | 0.45 m/s, 328° | - | - |
| 1778044829 | -5° C | 88% | 1014.2 hPa | 0 mm | 0.45 m/s, 284° | - | - |
| 1778044529 | -5° C | 88% | 1014.2 hPa | 0 mm | 0.45 m/s, 336° | - | - |
| 1778044229 | -5° C | 89% | 1014.2 hPa | 0 mm | 0 m/s | - | - |
| 1778044138 | -5° C | 89% | 1014.1 hPa | 0 mm | 0.45 m/s, 323° | - | - |
| 1778043929 | -5° C | 89% | 1014.1 hPa | 0 mm | 0.45 m/s, 323° | - | - |
| 1778043629 | -5° C | 89% | 1014.1 hPa | 0 mm | 0.89 m/s, 15° | - | - |
| 1778043510 | -5° C | 89% | 1014.1 hPa | 0 mm | 0.45 m/s, 12° | - | - |
| 1778043329 | -5° C | 89% | 1014.1 hPa | 0 mm | 0.45 m/s, 12° | - | - |
| 1778043029 | -5° C | 90% | 1014 hPa | 0 mm | 1.34 m/s, 9° | - | - |
| 1778042814 | -5° C | 90% | 1014 hPa | 0 mm | 1.34 m/s, 326° | - | - |
| 1778042729 | -5° C | 90% | 1014 hPa | 0 mm | 1.34 m/s, 326° | - | - |
| 1778042429 | -5° C | 90% | 1014.6 hPa | 0 mm | 0.89 m/s, 17° | - | - |
| 1778042128 | -5° C | 90% | 1014.6 hPa | 0 mm | 1.34 m/s, 10° | - | - |
* Rain latest hour (hover to see other rain measurements)
** Current wind speed in m/s (hover to see current wind gust speed)